Time,TemperatureF,DewpointF,PressureIn,WindDirection,WindDirectionDegrees,WindSpeedMPH,WindSpeedGustMPH,Humidity,HourlyPrecipIn,Conditions,Clouds,dailyrainin,SoftwareType,DateUTC
2013-01-16 00:02:00,18.0,9.0,30.30,SW,220,0.0,2.0,67,0.00,,,0.00,,2013-01-16 06:02:00,
2013-01-16 00:12:00,18.0,9.0,30.30,SW,220,0.0,2.0,67,0.00,,,0.00,,2013-01-16 06:12:00,
2013-01-16 00:22:00,18.0,9.0,30.30,SW,220,0.0,0.0,68,0.00,,,0.00,,2013-01-16 06:22:00,
2013-01-16 00:32:00,18.0,9.0,30.30,SW,219,0.0,0.0,67,0.00,,,0.00,,2013-01-16 06:32:00,
2013-01-16 00:43:00,18.0,9.0,30.30,SW,219,0.0,0.0,67,0.00,,,0.00,,2013-01-16 06:43:00,
2013-01-16 00:52:00,18.0,9.0,30.30,SW,219,0.0,1.0,67,0.00,,,0.00,,2013-01-16 06:52:00,
2013-01-16 01:02:00,18.0,9.0,30.29,SW,219,0.0,0.0,68,0.00,,,0.00,,2013-01-16 07:02:00,
2013-01-16 01:12:00,18.0,9.0,30.29,SW,219,0.0,0.0,68,0.00,,,0.00,,2013-01-16 07:12:00,
2013-01-16 01:22:00,18.0,9.0,30.28,SW,219,0.0,0.0,68,0.00,,,0.00,,2013-01-16 07:22:00,
2013-01-16 01:32:00,18.0,9.0,30.28,SW,219,0.0,0.0,68,0.00,,,0.00,,2013-01-16 07:32:00,
2013-01-16 01:42:00,18.0,9.0,30.28,SW,219,0.0,0.0,68,0.00,,,0.00,,2013-01-16 07:42:00,
2013-01-16 01:52:00,18.0,10.0,30.28,SW,219,0.0,0.0,69,0.00,,,0.00,,2013-01-16 07:52:00,
2013-01-16 02:02:00,18.0,10.0,30.27,SW,220,0.0,0.0,69,0.00,,,0.00,,2013-01-16 08:02:00,
2013-01-16 02:12:00,18.0,10.0,30.27,SW,220,0.0,0.0,69,0.00,,,0.00,,2013-01-16 08:12:00,
2013-01-16 02:22:00,17.0,9.0,30.27,SW,220,0.0,0.0,70,0.00,,,0.00,,2013-01-16 08:22:00,
2013-01-16 02:32:00,17.0,9.0,30.27,SW,220,0.0,0.0,70,0.00,,,0.00,,2013-01-16 08:32:00,
2013-01-16 02:42:00,17.0,9.0,30.27,SW,220,0.0,0.0,70,0.00,,,0.00,,2013-01-16 08:42:00,
2013-01-16 02:52:00,17.0,9.0,30.27,SW,227,0.0,3.0,71,0.00,,,0.00,,2013-01-16 08:52:00,
2013-01-16 03:02:00,17.0,9.0,30.26,SW,225,0.0,2.0,71,0.00,,,0.00,,2013-01-16 09:02:00,
2013-01-16 03:12:00,17.0,9.0,30.26,SW,225,0.0,2.0,71,0.00,,,0.00,,2013-01-16 09:12:00,
2013-01-16 03:22:00,17.0,10.0,30.26,SW,223,0.0,3.0,72,0.00,,,0.00,,2013-01-16 09:22:00,
2013-01-16 03:32:00,17.0,10.0,30.25,SW,223,0.0,3.0,72,0.00,,,0.00,,2013-01-16 09:32:00,
2013-01-16 03:42:00,17.0,10.0,30.25,SW,223,0.0,3.0,72,0.00,,,0.00,,2013-01-16 09:42:00,
2013-01-16 03:52:00,17.0,10.0,30.25,SW,223,0.0,3.0,72,0.00,,,0.00,,2013-01-16 09:52:00,
2013-01-16 04:02:00,17.0,10.0,30.24,SW,215,0.0,1.0,73,0.00,,,0.00,,2013-01-16 10:02:00,
2013-01-16 04:12:00,17.0,10.0,30.24,SW,215,0.0,1.0,73,0.00,,,0.00,,2013-01-16 10:12:00,
2013-01-16 04:22:00,17.0,10.0,30.24,SW,216,0.0,1.0,73,0.00,,,0.00,,2013-01-16 10:22:00,
2013-01-16 04:32:00,16.0,9.0,30.24,SW,225,0.0,6.0,74,0.00,,,0.00,,2013-01-16 10:32:00,
2013-01-16 04:42:00,16.0,9.0,30.24,SW,225,0.0,6.0,74,0.00,,,0.00,,2013-01-16 10:42:00,
2013-01-16 04:52:00,16.0,9.0,30.23,SW,225,0.0,2.0,74,0.00,,,0.00,,2013-01-16 10:52:00,
2013-01-16 05:02:00,17.0,10.0,30.23,SW,225,0.0,0.0,74,0.00,,,0.00,,2013-01-16 11:02:00,
2013-01-16 05:12:00,17.0,10.0,30.23,SW,225,0.0,0.0,74,0.00,,,0.00,,2013-01-16 11:12:00,
2013-01-16 05:22:00,16.0,9.0,30.22,SW,225,0.0,0.0,73,0.00,,,0.00,,2013-01-16 11:22:00,
2013-01-16 05:33:00,17.0,10.0,30.22,WSW,255,0.0,6.0,74,0.00,,,0.00,,2013-01-16 11:33:00,
2013-01-16 05:42:00,17.0,10.0,30.22,WSW,255,0.0,6.0,74,0.00,,,0.00,,2013-01-16 11:42:00,
2013-01-16 05:52:00,17.0,10.0,30.21,SSW,200,0.0,4.0,73,0.00,,,0.00,,2013-01-16 11:52:00,
2013-01-16 06:03:00,17.0,10.0,30.20,SW,236,0.0,2.0,73,0.00,,,0.00,,2013-01-16 12:03:00,
2013-01-16 06:13:00,17.0,10.0,30.20,SW,236,0.0,2.0,73,0.00,,,0.00,,2013-01-16 12:13:00,
2013-01-16 06:22:00,17.0,10.0,30.20,SW,214,0.0,6.0,73,0.00,,,0.00,,2013-01-16 12:22:00,
2013-01-16 06:33:00,18.0,11.0,30.20,SW,217,0.0,4.0,72,0.00,,,0.00,,2013-01-16 12:33:00,
2013-01-16 06:43:00,18.0,11.0,30.20,SW,217,0.0,4.0,72,0.00,,,0.00,,2013-01-16 12:43:00,
2013-01-16 06:53:00,18.0,10.0,30.19,SSE,158,0.0,4.0,71,0.00,,,0.00,,2013-01-16 12:53:00,
2013-01-16 07:03:00,18.0,11.0,30.19,SW,215,0.0,4.0,72,0.00,,,0.00,,2013-01-16 13:03:00,
2013-01-16 07:12:00,18.0,11.0,30.19,SW,215,0.0,4.0,72,0.00,,,0.00,,2013-01-16 13:12:00,
2013-01-16 07:22:00,17.0,10.0,30.18,SSE,155,0.0,4.0,72,0.00,,,0.00,,2013-01-16 13:22:00,
2013-01-16 07:33:00,17.0,10.0,30.18,South,186,0.0,3.0,72,0.00,,,0.00,,2013-01-16 13:33:00,
2013-01-16 07:43:00,17.0,10.0,30.18,South,186,0.0,3.0,72,0.00,,,0.00,,2013-01-16 13:43:00,
2013-01-16 07:52:00,17.0,10.0,30.18,South,185,0.0,3.0,73,0.00,,,0.00,,2013-01-16 13:52:00,
2013-01-16 08:03:00,17.0,10.0,30.18,South,186,0.0,2.0,73,0.00,,,0.00,,2013-01-16 14:03:00,
2013-01-16 08:12:00,17.0,10.0,30.18,South,186,0.0,2.0,73,0.00,,,0.00,,2013-01-16 14:12:00,
2013-01-16 08:22:00,17.0,10.0,30.19,SSW,211,0.0,4.0,73,0.00,,,0.00,,2013-01-16 14:22:00,
2013-01-16 08:33:00,18.0,11.0,30.19,WSW,252,0.0,6.0,73,0.00,,,0.00,,2013-01-16 14:33:00,
2013-01-16 08:43:00,18.0,11.0,30.19,WSW,252,0.0,6.0,73,0.00,,,0.00,,2013-01-16 14:43:00,
2013-01-16 08:53:00,20.0,12.0,30.19,WSW,247,0.0,6.0,71,0.00,,,0.00,,2013-01-16 14:53:00,
2013-01-16 09:03:00,21.0,13.0,30.20,SE,142,0.0,6.0,70,0.00,,,0.00,,2013-01-16 15:03:00,
2013-01-16 09:12:00,21.0,13.0,30.20,SE,142,0.0,6.0,70,0.00,,,0.00,,2013-01-16 15:12:00,
2013-01-16 09:22:00,22.0,13.0,30.20,SW,223,0.0,5.0,68,0.00,,,0.00,,2013-01-16 15:22:00,
2013-01-16 09:33:00,23.0,14.0,30.20,SE,132,1.0,8.0,68,0.00,,,0.00,,2013-01-16 15:33:00,
2013-01-16 09:43:00,23.0,14.0,30.20,SE,132,1.0,8.0,68,0.00,,,0.00,,2013-01-16 15:43:00,
2013-01-16 09:52:00,24.0,14.0,30.19,West,267,2.0,9.0,66,0.00,,,0.00,,2013-01-16 15:52:00,
2013-01-16 10:03:00,24.0,14.0,30.19,West,267,2.0,9.0,66,0.00,,,0.00,,2013-01-16 16:03:00,
2013-01-16 10:12:00,24.0,14.0,30.19,West,267,2.0,9.0,66,0.00,,,0.00,,2013-01-16 16:12:00,
2013-01-16 10:22:00,27.0,16.0,30.20,WSW,249,1.0,7.0,64,0.00,,,0.00,,2013-01-16 16:22:00,
2013-01-16 10:33:00,28.0,16.0,30.20,West,276,2.0,11.0,61,0.00,,,0.00,,2013-01-16 16:33:00,
2013-01-16 10:42:00,28.0,16.0,30.20,West,276,2.0,11.0,61,0.00,,,0.00,,2013-01-16 16:42:00,
2013-01-16 10:52:00,28.0,16.0,30.20,West,276,2.0,11.0,61,0.00,,,0.00,,2013-01-16 16:52:00,
2013-01-16 11:03:00,31.0,18.0,30.19,SSW,205,2.0,10.0,58,0.00,,,0.00,,2013-01-16 17:03:00,
2013-01-16 11:12:00,31.0,18.0,30.19,SSW,205,2.0,10.0,58,0.00,,,0.00,,2013-01-16 17:12:00,
2013-01-16 11:23:00,31.0,18.0,30.18,West,260,0.0,11.0,57,0.00,,,0.00,,2013-01-16 17:23:00,
2013-01-16 11:33:00,33.0,19.0,30.18,West,265,4.0,13.0,55,0.00,,,0.00,,2013-01-16 17:33:00,
2013-01-16 11:43:00,33.0,19.0,30.18,West,265,4.0,13.0,55,0.00,,,0.00,,2013-01-16 17:43:00,
2013-01-16 11:53:00,35.0,20.0,30.17,South,179,1.0,8.0,53,0.00,,,0.00,,2013-01-16 17:53:00,
2013-01-16 12:03:00,35.0,19.0,30.18,SSW,202,2.0,10.0,52,0.00,,,0.00,,2013-01-16 18:03:00,
2013-01-16 12:13:00,35.0,19.0,30.18,SSW,202,2.0,10.0,52,0.00,,,0.00,,2013-01-16 18:13:00,
2013-01-16 12:23:00,35.0,19.0,30.18,SSW,202,2.0,10.0,52,0.00,,,0.00,,2013-01-16 18:23:00,
2013-01-16 12:33:00,35.0,19.0,30.16,WSW,244,1.0,7.0,52,0.00,,,0.00,,2013-01-16 18:33:00,
2013-01-16 12:43:00,35.0,19.0,30.16,WSW,244,1.0,7.0,52,0.00,,,0.00,,2013-01-16 18:43:00,
2013-01-16 12:53:00,36.0,20.0,30.15,SW,226,2.0,10.0,52,0.00,,,0.00,,2013-01-16 18:53:00,
2013-01-16 13:03:00,36.0,20.0,30.15,SW,226,2.0,10.0,52,0.00,,,0.00,,2013-01-16 19:03:00,
2013-01-16 13:12:00,36.0,20.0,30.15,SW,226,2.0,10.0,52,0.00,,,0.00,,2013-01-16 19:12:00,
2013-01-16 13:23:00,38.0,21.0,30.14,SW,228,4.0,12.0,50,0.00,,,0.00,,2013-01-16 19:23:00,
2013-01-16 13:33:00,38.0,22.0,30.14,SSW,198,2.0,10.0,51,0.00,,,0.00,,2013-01-16 19:33:00,
2013-01-16 13:43:00,38.0,22.0,30.14,SSW,198,2.0,10.0,51,0.00,,,0.00,,2013-01-16 19:43:00,
2013-01-16 13:52:00,38.0,22.0,30.14,WSW,246,5.0,11.0,51,0.00,,,0.00,,2013-01-16 19:52:00,
2013-01-16 14:03:00,39.0,22.0,30.15,SW,215,5.0,11.0,51,0.00,,,0.00,,2013-01-16 20:03:00,
2013-01-16 14:12:00,39.0,22.0,30.15,SW,215,5.0,11.0,51,0.00,,,0.00,,2013-01-16 20:12:00,
2013-01-16 14:23:00,40.0,23.0,30.15,South,173,2.0,11.0,51,0.00,,,0.00,,2013-01-16 20:23:00,
2013-01-16 14:33:00,41.0,24.0,30.15,South,182,2.0,5.0,50,0.00,,,0.00,,2013-01-16 20:33:00,
2013-01-16 14:42:00,41.0,24.0,30.15,South,182,2.0,5.0,50,0.00,,,0.00,,2013-01-16 20:42:00,
2013-01-16 14:53:00,42.0,24.0,30.15,WNW,283,5.0,10.0,49,0.00,,,0.00,,2013-01-16 20:53:00,
2013-01-16 15:03:00,42.0,25.0,30.14,West,260,3.0,10.0,50,0.00,,,0.00,,2013-01-16 21:03:00,
2013-01-16 15:12:00,42.0,25.0,30.14,West,260,3.0,10.0,50,0.00,,,0.00,,2013-01-16 21:12:00,
2013-01-16 15:22:00,43.0,25.0,30.15,West,271,3.0,9.0,49,0.00,,,0.00,,2013-01-16 21:22:00,
2013-01-16 15:33:00,43.0,26.0,30.14,WSW,246,5.0,13.0,51,0.00,,,0.00,,2013-01-16 21:33:00,
2013-01-16 15:43:00,43.0,26.0,30.14,WSW,246,5.0,13.0,51,0.00,,,0.00,,2013-01-16 21:43:00,
2013-01-16 15:52:00,43.0,26.0,30.14,SSW,210,4.0,13.0,51,0.00,,,0.00,,2013-01-16 21:52:00,
2013-01-16 16:02:00,43.0,26.0,30.14,WNW,283,1.0,8.0,51,0.00,,,0.00,,2013-01-16 22:02:00,
2013-01-16 16:12:00,43.0,26.0,30.14,WNW,283,1.0,8.0,51,0.00,,,0.00,,2013-01-16 22:12:00,
2013-01-16 16:22:00,43.0,27.0,30.14,WNW,287,4.0,10.0,52,0.00,,,0.00,,2013-01-16 22:22:00,
2013-01-16 16:33:00,43.0,27.0,30.15,West,276,3.0,9.0,52,0.00,,,0.00,,2013-01-16 22:33:00,
2013-01-16 16:43:00,43.0,27.0,30.15,West,276,3.0,9.0,52,0.00,,,0.00,,2013-01-16 22:43:00,
2013-01-16 16:52:00,43.0,27.0,30.15,West,265,3.0,8.0,53,0.00,,,0.00,,2013-01-16 22:52:00,
2013-01-16 17:03:00,43.0,28.0,30.16,West,277,1.0,7.0,54,0.00,,,0.00,,2013-01-16 23:03:00,
2013-01-16 17:12:00,42.0,27.0,30.16,West,275,0.0,4.0,55,0.00,,,0.00,,2013-01-16 23:12:00,
2013-01-16 17:23:00,42.0,27.0,30.16,West,275,0.0,4.0,55,0.00,,,0.00,,2013-01-16 23:23:00,
2013-01-16 17:32:00,42.0,27.0,30.16,West,275,0.0,4.0,55,0.00,,,0.00,,2013-01-16 23:32:00,
2013-01-16 17:42:00,42.0,27.0,30.16,West,275,0.0,4.0,55,0.00,,,0.00,,2013-01-16 23:42:00,
2013-01-16 17:52:00,41.0,27.0,30.18,West,275,0.0,0.0,57,0.00,,,0.00,,2013-01-16 23:52:00,
2013-01-16 18:02:00,40.0,27.0,30.18,West,275,0.0,0.0,59,0.00,,,0.00,,2013-01-17 00:02:00,
2013-01-16 18:12:00,40.0,27.0,30.18,West,275,0.0,0.0,59,0.00,,,0.00,,2013-01-17 00:12:00,
2013-01-16 18:22:00,38.0,25.0,30.18,West,275,0.0,1.0,60,0.00,,,0.00,,2013-01-17 00:22:00,
2013-01-16 18:32:00,37.0,25.0,30.19,West,275,0.0,0.0,62,0.00,,,0.00,,2013-01-17 00:32:00,
2013-01-16 18:42:00,37.0,25.0,30.19,West,275,0.0,0.0,62,0.00,,,0.00,,2013-01-17 00:42:00,
2013-01-16 18:52:00,37.0,26.0,30.19,West,275,0.0,0.0,63,0.00,,,0.00,,2013-01-17 00:52:00,
2013-01-16 19:02:00,36.0,25.0,30.19,West,275,0.0,0.0,63,0.00,,,0.00,,2013-01-17 01:02:00,
2013-01-16 19:12:00,36.0,25.0,30.19,West,275,0.0,0.0,63,0.00,,,0.00,,2013-01-17 01:12:00,
2013-01-16 19:22:00,36.0,25.0,30.20,West,275,0.0,0.0,64,0.00,,,0.00,,2013-01-17 01:22:00,
2013-01-16 19:33:00,35.0,25.0,30.21,West,275,0.0,0.0,66,0.00,,,0.00,,2013-01-17 01:33:00,
2013-01-16 19:42:00,35.0,25.0,30.21,West,275,0.0,0.0,66,0.00,,,0.00,,2013-01-17 01:42:00,
2013-01-16 19:52:00,35.0,25.0,30.21,West,275,0.0,1.0,66,0.00,,,0.00,,2013-01-17 01:52:00,
2013-01-16 20:02:00,35.0,25.0,30.21,West,275,0.0,1.0,66,0.00,,,0.00,,2013-01-17 02:02:00,
2013-01-16 20:12:00,35.0,25.0,30.21,West,275,0.0,1.0,66,0.00,,,0.00,,2013-01-17 02:12:00,
2013-01-16 20:22:00,34.0,25.0,30.21,West,275,0.0,0.0,68,0.00,,,0.00,,2013-01-17 02:22:00,
2013-01-16 20:32:00,34.0,25.0,30.22,West,275,0.0,0.0,69,0.00,,,0.00,,2013-01-17 02:32:00,
2013-01-16 20:42:00,34.0,25.0,30.22,West,275,0.0,0.0,69,0.00,,,0.00,,2013-01-17 02:42:00,
2013-01-16 20:52:00,34.0,25.0,30.22,West,275,0.0,0.0,69,0.00,,,0.00,,2013-01-17 02:52:00,
2013-01-16 21:03:00,32.0,24.0,30.22,West,275,0.0,0.0,71,0.00,,,0.00,,2013-01-17 03:03:00,
2013-01-16 21:12:00,32.0,24.0,30.22,West,275,0.0,0.0,71,0.00,,,0.00,,2013-01-17 03:12:00,
2013-01-16 21:22:00,32.0,24.0,30.22,West,275,0.0,0.0,73,0.00,,,0.00,,2013-01-17 03:22:00,
2013-01-16 21:32:00,31.0,24.0,30.23,West,275,0.0,2.0,75,0.00,,,0.00,,2013-01-17 03:32:00,
2013-01-16 21:42:00,31.0,24.0,30.23,West,275,0.0,2.0,75,0.00,,,0.00,,2013-01-17 03:42:00,
2013-01-16 21:52:00,31.0,24.0,30.23,West,275,0.0,0.0,75,0.00,,,0.00,,2013-01-17 03:52:00,
2013-01-16 22:02:00,31.0,24.0,30.23,West,275,0.0,0.0,76,0.00,,,0.00,,2013-01-17 04:02:00,
2013-01-16 22:12:00,31.0,25.0,30.23,West,275,0.0,0.0,77,0.00,,,0.00,,2013-01-17 04:12:00,
2013-01-16 22:22:00,31.0,25.0,30.23,West,275,0.0,0.0,77,0.00,,,0.00,,2013-01-17 04:22:00,
2013-01-16 22:32:00,30.0,24.0,30.24,West,275,0.0,0.0,77,0.00,,,0.00,,2013-01-17 04:32:00,
2013-01-16 22:42:00,30.0,24.0,30.24,West,275,0.0,0.0,77,0.00,,,0.00,,2013-01-17 04:42:00,
2013-01-16 22:52:00,30.0,24.0,30.24,West,275,0.0,0.0,77,0.00,,,0.00,,2013-01-17 04:52:00,
2013-01-16 23:04:00,29.0,24.0,30.25,West,275,0.0,1.0,80,0.00,,,0.00,,2013-01-17 05:04:00,
2013-01-16 23:12:00,29.0,24.0,30.25,West,275,0.0,1.0,80,0.00,,,0.00,,2013-01-17 05:12:00,
2013-01-16 23:22:00,29.0,24.0,30.26,West,275,0.0,1.0,81,0.00,,,0.00,,2013-01-17 05:22:00,
2013-01-16 23:33:00,29.0,24.0,30.27,West,275,0.0,0.0,82,0.00,,,0.00,,2013-01-17 05:33:00,
2013-01-16 23:42:00,29.0,24.0,30.27,West,275,0.0,0.0,82,0.00,,,0.00,,2013-01-17 05:42:00,
2013-01-16 23:52:00,31.0,26.0,30.28,West,275,0.0,4.0,83,0.00,,,0.00,,2013-01-17 05:52:00,